Time,TemperatureF,DewpointF,PressureIn,WindDirection,WindDirectionDegrees,WindSpeedMPH,WindSpeedGustMPH,Humidity,HourlyPrecipIn,Conditions,Clouds,dailyrainin,SoftwareType,DateUTC
2013-02-11 00:00:00,44.8,37.4,29.84,SSW,206,6.0,-999.0,75,0.00,,,0.01,Wunderground v.1.15,2013-02-11 05:00:00,
2013-02-11 00:02:00,44.8,37.4,29.84,SSE,165,7.0,-999.0,75,0.00,,,0.00,Wunderground v.1.15,2013-02-11 05:02:00,
2013-02-11 00:04:00,44.8,37.0,29.84,South,172,7.0,-999.0,74,0.00,,,0.00,Wunderground v.1.15,2013-02-11 05:04:00,
2013-02-11 00:05:00,44.8,37.0,29.84,South,173,7.0,-999.0,74,0.00,,,0.00,Wunderground v.1.15,2013-02-11 05:05:00,
2013-02-11 00:11:00,44.9,37.1,29.84,South,179,7.0,-999.0,74,0.00,,,0.00,Wunderground v.1.15,2013-02-11 05:11:00,
2013-02-11 00:16:00,45.0,37.2,29.83,South,190,7.0,-999.0,74,0.00,,,0.00,Wunderground v.1.15,2013-02-11 05:16:00,
2013-02-11 00:22:00,45.3,37.2,29.83,SSE,163,8.0,-999.0,73,0.00,,,0.00,Wunderground v.1.15,2013-02-11 05:22:00,
2013-02-11 00:28:00,45.2,37.1,29.83,South,189,8.0,-999.0,73,0.00,,,0.00,Wunderground v.1.15,2013-02-11 05:28:00,
2013-02-11 00:34:00,45.3,37.2,29.83,South,175,9.0,-999.0,73,0.00,,,0.00,Wunderground v.1.15,2013-02-11 05:34:00,
2013-02-11 00:40:00,45.2,37.7,29.82,South,186,9.0,-999.0,75,0.00,,,0.00,Wunderground v.1.15,2013-02-11 05:40:00,
2013-02-11 00:46:00,45.1,38.3,29.83,South,175,10.0,-999.0,77,0.00,,,0.00,Wunderground v.1.15,2013-02-11 05:46:00,
2013-02-11 00:52:00,45.0,38.6,29.83,South,169,9.0,-999.0,78,0.00,,,0.00,Wunderground v.1.15,2013-02-11 05:52:00,
2013-02-11 00:58:00,45.1,39.0,29.82,SSW,211,11.0,-999.0,79,0.00,,,0.00,Wunderground v.1.15,2013-02-11 05:58:00,
2013-02-11 01:04:00,44.9,39.1,29.82,SSW,206,12.0,-999.0,80,0.00,,,0.00,Wunderground v.1.15,2013-02-11 06:04:00,
2013-02-11 01:10:00,44.7,38.9,29.82,SSE,150,10.0,-999.0,80,0.00,,,0.00,Wunderground v.1.15,2013-02-11 06:10:00,
2013-02-11 01:16:00,44.6,39.1,29.81,South,172,8.0,-999.0,81,0.00,,,0.00,Wunderground v.1.15,2013-02-11 06:16:00,
2013-02-11 01:22:00,44.3,39.5,29.81,South,178,8.0,-999.0,83,0.00,,,0.00,Wunderground v.1.15,2013-02-11 06:22:00,
2013-02-11 01:28:00,44.2,39.7,29.80,South,173,8.0,-999.0,84,0.00,,,0.00,Wunderground v.1.15,2013-02-11 06:28:00,
2013-02-11 01:33:00,44.2,39.7,29.80,South,184,7.0,-999.0,84,0.00,,,0.00,Wunderground v.1.15,2013-02-11 06:33:00,
2013-02-11 01:39:00,44.0,39.5,29.80,South,177,7.0,-999.0,84,0.00,,,0.00,Wunderground v.1.15,2013-02-11 06:39:00,
2013-02-11 01:45:00,43.6,39.4,29.79,SSE,163,7.0,-999.0,85,0.00,,,0.00,Wunderground v.1.15,2013-02-11 06:45:00,
2013-02-11 01:51:00,43.6,39.7,29.79,South,191,7.0,-999.0,86,0.00,,,0.00,Wunderground v.1.15,2013-02-11 06:51:00,
2013-02-11 01:57:00,43.6,39.7,29.79,SSE,151,6.0,-999.0,86,0.00,,,0.00,Wunderground v.1.15,2013-02-11 06:57:00,
2013-02-11 02:02:00,43.7,39.8,29.79,South,184,6.0,-999.0,86,0.00,,,0.00,Wunderground v.1.15,2013-02-11 07:02:00,
2013-02-11 02:08:00,43.6,39.7,29.79,South,173,6.0,-999.0,86,0.00,,,0.00,Wunderground v.1.15,2013-02-11 07:08:00,
2013-02-11 02:14:00,43.4,39.5,29.79,South,171,6.0,-999.0,86,0.00,,,0.00,Wunderground v.1.15,2013-02-11 07:14:00,
2013-02-11 02:20:00,43.3,39.7,29.79,South,179,5.0,-999.0,87,0.00,,,0.00,Wunderground v.1.15,2013-02-11 07:20:00,
2013-02-11 02:26:00,43.0,39.4,29.79,South,171,5.0,-999.0,87,0.00,,,0.00,Wunderground v.1.15,2013-02-11 07:26:00,
2013-02-11 02:32:00,42.8,39.5,29.79,South,173,6.0,-999.0,88,0.00,,,0.00,Wunderground v.1.15,2013-02-11 07:32:00,
2013-02-11 02:37:00,42.7,39.4,29.79,SSE,168,5.0,-999.0,88,0.00,,,0.00,Wunderground v.1.15,2013-02-11 07:37:00,
2013-02-11 02:43:00,42.5,39.5,29.78,South,175,5.0,-999.0,89,0.00,,,0.00,Wunderground v.1.15,2013-02-11 07:43:00,
2013-02-11 02:49:00,42.4,39.7,29.78,SSE,162,4.0,-999.0,90,0.00,,,0.00,Wunderground v.1.15,2013-02-11 07:49:00,
2013-02-11 02:55:00,42.4,39.7,29.78,South,175,5.0,-999.0,90,0.00,,,0.00,Wunderground v.1.15,2013-02-11 07:55:00,
2013-02-11 03:01:00,42.5,40.1,29.78,South,173,4.0,-999.0,91,0.00,,,0.00,Wunderground v.1.15,2013-02-11 08:01:00,
2013-02-11 03:07:00,42.5,40.1,29.78,SSW,202,4.0,-999.0,91,0.00,,,0.00,Wunderground v.1.15,2013-02-11 08:07:00,
2013-02-11 03:13:00,42.6,40.2,29.78,South,182,3.0,-999.0,91,0.00,,,0.00,Wunderground v.1.15,2013-02-11 08:13:00,
2013-02-11 03:19:00,42.7,40.5,29.78,South,188,3.0,-999.0,92,0.00,,,0.00,Wunderground v.1.15,2013-02-11 08:19:00,
2013-02-11 03:24:00,42.9,40.7,29.78,South,170,4.0,-999.0,92,0.00,,,0.00,Wunderground v.1.15,2013-02-11 08:24:00,
2013-02-11 03:30:00,42.9,40.7,29.77,SSE,163,4.0,-999.0,92,0.00,,,0.00,Wunderground v.1.15,2013-02-11 08:30:00,
2013-02-11 03:35:00,43.1,40.9,29.77,South,188,4.0,-999.0,92,0.00,,,0.00,Wunderground v.1.15,2013-02-11 08:35:00,
2013-02-11 03:41:00,43.2,41.0,29.77,South,182,4.0,-999.0,92,0.00,,,0.00,Wunderground v.1.15,2013-02-11 08:41:00,
2013-02-11 03:47:00,43.2,41.0,29.76,South,173,3.0,-999.0,92,0.00,,,0.00,Wunderground v.1.15,2013-02-11 08:47:00,
2013-02-11 03:53:00,43.4,41.2,29.76,South,184,4.0,-999.0,92,0.00,,,0.00,Wunderground v.1.15,2013-02-11 08:53:00,
2013-02-11 03:59:00,43.3,41.1,29.76,South,185,4.0,-999.0,92,0.00,,,0.00,Wunderground v.1.15,2013-02-11 08:59:00,
2013-02-11 04:05:00,43.8,41.9,29.75,SSW,196,4.0,-999.0,93,0.00,,,0.00,Wunderground v.1.15,2013-02-11 09:05:00,
2013-02-11 04:10:00,44.1,42.2,29.75,SSW,200,4.0,-999.0,93,0.00,,,0.00,Wunderground v.1.15,2013-02-11 09:10:00,
2013-02-11 04:16:00,44.4,42.5,29.75,South,175,5.0,-999.0,93,0.00,,,0.00,Wunderground v.1.15,2013-02-11 09:16:00,
2013-02-11 04:21:00,44.7,42.8,29.75,South,184,5.0,-999.0,93,0.00,,,0.00,Wunderground v.1.15,2013-02-11 09:21:00,
2013-02-11 04:27:00,44.9,43.0,29.75,South,172,5.0,-999.0,93,0.00,,,0.00,Wunderground v.1.15,2013-02-11 09:27:00,
2013-02-11 04:33:00,45.1,42.9,29.75,SSW,193,6.0,-999.0,92,0.00,,,0.00,Wunderground v.1.15,2013-02-11 09:33:00,
2013-02-11 04:39:00,45.3,43.1,29.74,South,191,6.0,-999.0,92,0.00,,,0.00,Wunderground v.1.15,2013-02-11 09:39:00,
2013-02-11 04:45:00,45.4,43.2,29.74,SW,220,6.0,-999.0,92,0.00,,,0.00,Wunderground v.1.15,2013-02-11 09:45:00,
2013-02-11 04:50:00,45.5,43.3,29.74,SW,217,5.0,-999.0,92,0.00,,,0.00,Wunderground v.1.15,2013-02-11 09:50:00,
2013-02-11 04:56:00,45.7,43.5,29.75,SSW,193,5.0,-999.0,92,0.00,,,0.00,Wunderground v.1.15,2013-02-11 09:56:00,
2013-02-11 05:02:00,45.8,43.6,29.75,SSW,198,5.0,-999.0,92,0.00,,,0.00,Wunderground v.1.15,2013-02-11 10:02:00,
2013-02-11 05:08:00,45.9,43.4,29.74,South,184,6.0,-999.0,91,0.00,,,0.00,Wunderground v.1.15,2013-02-11 10:08:00,
2013-02-11 05:14:00,46.0,43.5,29.74,SSW,195,6.0,-999.0,91,0.00,,,0.00,Wunderground v.1.15,2013-02-11 10:14:00,
2013-02-11 05:20:00,46.2,43.7,29.74,South,173,5.0,-999.0,91,0.00,,,0.00,Wunderground v.1.15,2013-02-11 10:20:00,
2013-02-11 05:26:00,46.3,43.8,29.74,South,173,5.0,-999.0,91,0.00,,,0.00,Wunderground v.1.15,2013-02-11 10:26:00,
2013-02-11 05:32:00,46.5,44.0,29.74,SSW,202,5.0,-999.0,91,0.00,,,0.00,Wunderground v.1.15,2013-02-11 10:32:00,
2013-02-11 05:38:00,46.7,43.9,29.74,South,180,6.0,-999.0,90,0.00,,,0.00,Wunderground v.1.15,2013-02-11 10:38:00,
2013-02-11 05:44:00,46.8,44.0,29.74,South,189,7.0,-999.0,90,0.00,,,0.00,Wunderground v.1.15,2013-02-11 10:44:00,
2013-02-11 05:50:00,46.9,44.1,29.74,South,191,7.0,-999.0,90,0.00,,,0.00,Wunderground v.1.15,2013-02-11 10:50:00,
2013-02-11 05:55:00,46.9,44.1,29.73,SW,217,7.0,-999.0,90,0.00,,,0.00,Wunderground v.1.15,2013-02-11 10:55:00,
2013-02-11 06:01:00,46.9,43.8,29.73,SSW,209,7.0,-999.0,89,0.00,,,0.00,Wunderground v.1.15,2013-02-11 11:01:00,
2013-02-11 06:06:00,46.7,43.6,29.73,South,181,6.0,-999.0,89,0.00,,,0.00,Wunderground v.1.15,2013-02-11 11:06:00,
2013-02-11 06:12:00,46.7,43.9,29.72,SSW,212,7.0,-999.0,90,0.00,,,0.00,Wunderground v.1.15,2013-02-11 11:12:00,
2013-02-11 06:18:00,46.6,43.5,29.71,South,183,7.0,-999.0,89,0.00,,,0.00,Wunderground v.1.15,2013-02-11 11:18:00,
2013-02-11 06:24:00,46.3,43.2,29.71,South,188,7.0,-999.0,89,0.00,,,0.00,Wunderground v.1.15,2013-02-11 11:24:00,
2013-02-11 06:30:00,46.1,43.3,29.72,SSW,204,5.0,-999.0,90,0.00,,,0.00,Wunderground v.1.15,2013-02-11 11:30:00,
2013-02-11 06:36:00,46.1,43.3,29.72,SW,236,3.0,-999.0,90,0.00,,,0.00,Wunderground v.1.15,2013-02-11 11:36:00,
2013-02-11 06:42:00,46.0,43.2,29.72,SSW,213,3.0,-999.0,90,0.00,,,0.00,Wunderground v.1.15,2013-02-11 11:42:00,
2013-02-11 06:48:00,46.0,43.2,29.72,SW,224,3.0,-999.0,90,0.00,,,0.00,Wunderground v.1.15,2013-02-11 11:48:00,
2013-02-11 06:53:00,46.2,43.4,29.72,South,190,3.0,-999.0,90,0.00,,,0.00,Wunderground v.1.15,2013-02-11 11:53:00,
2013-02-11 06:59:00,46.5,44.0,29.72,SW,225,4.0,-999.0,91,0.00,,,0.00,Wunderground v.1.15,2013-02-11 11:59:00,
2013-02-11 07:05:00,46.7,43.9,29.71,South,179,4.0,-999.0,90,0.00,,,0.00,Wunderground v.1.15,2013-02-11 12:05:00,
2013-02-11 07:11:00,46.8,44.0,29.71,South,178,4.0,-999.0,90,0.00,,,0.00,Wunderground v.1.15,2013-02-11 12:11:00,
2013-02-11 07:17:00,46.9,44.1,29.71,SSW,198,4.0,-999.0,90,0.00,,,0.00,Wunderground v.1.15,2013-02-11 12:17:00,
2013-02-11 07:23:00,47.0,44.2,29.71,SSW,198,4.0,-999.0,90,0.00,,,0.00,Wunderground v.1.15,2013-02-11 12:23:00,
2013-02-11 07:29:00,47.0,44.2,29.71,South,188,4.0,-999.0,90,0.00,,,0.00,Wunderground v.1.15,2013-02-11 12:29:00,
2013-02-11 07:35:00,47.0,44.2,29.71,SSW,194,5.0,-999.0,90,0.00,,,0.00,Wunderground v.1.15,2013-02-11 12:35:00,
2013-02-11 07:41:00,47.3,44.5,29.71,South,188,6.0,-999.0,90,0.00,,,0.00,Wunderground v.1.15,2013-02-11 12:41:00,
2013-02-11 07:47:00,47.4,44.6,29.70,SW,217,6.0,-999.0,90,0.00,,,0.00,Wunderground v.1.15,2013-02-11 12:47:00,
2013-02-11 07:52:00,47.4,44.6,29.70,SSW,195,5.0,-999.0,90,0.00,,,0.00,Wunderground v.1.15,2013-02-11 12:52:00,
2013-02-11 07:58:00,47.7,44.9,29.70,SW,217,7.0,-999.0,90,0.00,,,0.00,Wunderground v.1.15,2013-02-11 12:58:00,
2013-02-11 08:04:00,47.7,44.6,29.70,SSW,198,7.0,-999.0,89,0.00,,,0.00,Wunderground v.1.15,2013-02-11 13:04:00,
2013-02-11 08:10:00,48.0,45.2,29.69,SW,218,7.0,-999.0,90,0.00,,,0.00,Wunderground v.1.15,2013-02-11 13:10:00,
2013-02-11 08:15:00,48.2,45.4,29.69,SSE,162,7.0,-999.0,90,0.00,,,0.00,Wunderground v.1.15,2013-02-11 13:15:00,
2013-02-11 08:21:00,48.5,45.4,29.69,SW,219,7.0,-999.0,89,0.00,,,0.00,Wunderground v.1.15,2013-02-11 13:21:00,
2013-02-11 08:27:00,48.9,45.8,29.69,SSW,201,8.0,-999.0,89,0.00,,,0.00,Wunderground v.1.15,2013-02-11 13:27:00,
2013-02-11 08:32:00,49.3,46.2,29.69,SSE,148,8.0,-999.0,89,0.00,,,0.00,Wunderground v.1.15,2013-02-11 13:32:00,
2013-02-11 08:37:00,49.4,46.0,29.69,SSW,212,8.0,-999.0,88,0.00,,,0.00,Wunderground v.1.15,2013-02-11 13:37:00,
2013-02-11 08:43:00,49.4,46.0,29.69,South,190,9.0,-999.0,88,0.00,,,0.00,Wunderground v.1.15,2013-02-11 13:43:00,
2013-02-11 08:49:00,49.5,45.8,29.69,SW,236,10.0,-999.0,87,0.00,,,0.00,Wunderground v.1.15,2013-02-11 13:49:00,
2013-02-11 08:55:00,49.5,46.1,29.69,South,182,8.0,-999.0,88,0.00,,,0.00,Wunderground v.1.15,2013-02-11 13:55:00,
2013-02-11 09:01:00,49.8,46.4,29.69,SW,215,8.0,-999.0,88,0.00,,,0.00,Wunderground v.1.15,2013-02-11 14:01:00,
2013-02-11 09:06:00,49.9,45.9,29.68,SSW,213,9.0,-999.0,86,0.00,,,0.00,Wunderground v.1.15,2013-02-11 14:06:00,
2013-02-11 09:12:00,50.3,46.0,29.67,SW,230,10.0,-999.0,85,0.00,,,0.00,Wunderground v.1.15,2013-02-11 14:12:00,
2013-02-11 09:18:00,50.9,45.9,29.68,SW,222,11.0,-999.0,83,0.00,,,0.00,Wunderground v.1.15,2013-02-11 14:18:00,
2013-02-11 09:23:00,51.3,46.0,29.68,WSW,247,10.0,-999.0,82,0.00,,,0.00,Wunderground v.1.15,2013-02-11 14:23:00,
2013-02-11 09:29:00,51.3,45.7,29.68,South,179,9.0,-999.0,81,0.00,,,0.00,Wunderground v.1.15,2013-02-11 14:29:00,
2013-02-11 09:34:00,51.4,45.8,29.68,SSW,200,8.0,-999.0,81,0.00,,,0.00,Wunderground v.1.15,2013-02-11 14:34:00,
2013-02-11 09:40:00,51.6,46.0,29.68,SSW,202,8.0,-999.0,81,0.00,,,0.00,Wunderground v.1.15,2013-02-11 14:40:00,
2013-02-11 09:46:00,51.7,45.4,29.68,SW,235,8.0,-999.0,79,0.00,,,0.00,Wunderground v.1.15,2013-02-11 14:46:00,
2013-02-11 09:52:00,51.8,45.8,29.67,SSW,211,7.0,-999.0,80,0.00,,,0.00,Wunderground v.1.15,2013-02-11 14:52:00,
2013-02-11 09:58:00,52.1,45.4,29.67,SW,230,7.0,-999.0,78,0.00,,,0.00,Wunderground v.1.15,2013-02-11 14:58:00,
2013-02-11 10:04:00,52.0,45.7,29.67,WSW,252,8.0,-999.0,79,0.00,,,0.00,Wunderground v.1.15,2013-02-11 15:04:00,
2013-02-11 10:09:00,52.2,45.9,29.67,SW,226,7.0,-999.0,79,0.00,,,0.00,Wunderground v.1.15,2013-02-11 15:09:00,
2013-02-11 10:15:00,52.4,45.7,29.67,West,269,7.0,-999.0,78,0.00,,,0.00,Wunderground v.1.15,2013-02-11 15:15:00,
2013-02-11 10:21:00,52.8,44.7,29.67,SW,236,8.0,-999.0,74,0.00,,,0.00,Wunderground v.1.15,2013-02-11 15:21:00,
2013-02-11 10:27:00,52.7,43.6,29.67,West,259,9.0,-999.0,71,0.00,,,0.00,Wunderground v.1.15,2013-02-11 15:27:00,
2013-02-11 10:33:00,52.7,43.9,29.67,SW,222,9.0,-999.0,72,0.00,,,0.00,Wunderground v.1.15,2013-02-11 15:33:00,
2013-02-11 10:39:00,53.0,43.5,29.67,WSW,240,9.0,-999.0,70,0.00,,,0.00,Wunderground v.1.15,2013-02-11 15:39:00,
2013-02-11 10:45:00,53.5,42.4,29.67,WNW,286,9.0,-999.0,66,0.00,,,0.00,Wunderground v.1.15,2013-02-11 15:45:00,
2013-02-11 10:51:00,53.5,42.0,29.66,WNW,284,10.0,-999.0,65,0.00,,,0.00,Wunderground v.1.15,2013-02-11 15:51:00,
2013-02-11 10:57:00,53.5,41.2,29.66,WSW,248,9.0,-999.0,63,0.00,,,0.00,Wunderground v.1.15,2013-02-11 15:57:00,
2013-02-11 11:02:00,53.4,41.9,29.66,SSW,192,9.0,-999.0,65,0.00,,,0.00,Wunderground v.1.15,2013-02-11 16:02:00,
2013-02-11 11:08:00,53.5,41.6,29.66,West,270,9.0,-999.0,64,0.00,,,0.00,Wunderground v.1.15,2013-02-11 16:08:00,
2013-02-11 11:13:00,53.5,41.6,29.66,WSW,251,9.0,-999.0,64,0.00,,,0.00,Wunderground v.1.15,2013-02-11 16:13:00,
2013-02-11 11:19:00,53.4,41.1,29.66,WSW,240,9.0,-999.0,63,0.00,,,0.00,Wunderground v.1.15,2013-02-11 16:19:00,
2013-02-11 11:25:00,53.4,40.7,29.67,SW,214,11.0,-999.0,62,0.00,,,0.01,Wunderground v.1.15,2013-02-11 16:25:00,
2013-02-11 11:31:00,53.6,40.5,29.66,SW,232,11.0,-999.0,61,0.00,,,0.01,Wunderground v.1.15,2013-02-11 16:31:00,
2013-02-11 11:37:00,54.0,40.4,29.66,SW,219,12.0,-999.0,60,0.00,,,0.01,Wunderground v.1.15,2013-02-11 16:37:00,
2013-02-11 11:43:00,54.0,40.4,29.66,West,261,13.0,-999.0,60,0.00,,,0.01,Wunderground v.1.15,2013-02-11 16:43:00,
2013-02-11 11:49:00,54.5,39.6,29.66,WNW,284,11.0,-999.0,57,0.00,,,0.01,Wunderground v.1.15,2013-02-11 16:49:00,
2013-02-11 11:55:00,54.4,39.9,29.66,WSW,252,12.0,-999.0,58,0.00,,,0.01,Wunderground v.1.15,2013-02-11 16:55:00,
2013-02-11 12:01:00,55.1,41.0,29.66,WSW,238,12.0,-999.0,59,0.00,,,0.01,Wunderground v.1.15,2013-02-11 17:01:00,
2013-02-11 12:07:00,55.7,41.1,29.66,WSW,250,9.0,-999.0,58,0.00,,,0.01,Wunderground v.1.15,2013-02-11 17:07:00,
2013-02-11 12:13:00,55.7,39.3,29.66,WNW,297,11.0,-999.0,54,0.00,,,0.01,Wunderground v.1.15,2013-02-11 17:13:00,
2013-02-11 12:19:00,54.3,41.1,29.66,West,280,11.0,-999.0,61,0.00,,,0.01,Wunderground v.1.15,2013-02-11 17:19:00,
2013-02-11 12:24:00,53.2,40.9,29.66,NW,307,10.0,-999.0,63,0.00,,,0.01,Wunderground v.1.15,2013-02-11 17:24:00,
2013-02-11 12:30:00,52.5,40.3,29.66,WSW,244,11.0,-999.0,63,0.00,,,0.01,Wunderground v.1.15,2013-02-11 17:30:00,
2013-02-11 12:35:00,53.0,41.1,29.67,WSW,248,11.0,-999.0,64,0.00,,,0.01,Wunderground v.1.15,2013-02-11 17:35:00,
2013-02-11 12:41:00,53.5,40.4,29.67,SW,234,9.0,-999.0,61,0.00,,,0.01,Wunderground v.1.15,2013-02-11 17:41:00,
2013-02-11 12:47:00,53.3,39.8,29.67,West,266,9.0,-999.0,60,0.00,,,0.01,Wunderground v.1.15,2013-02-11 17:47:00,
2013-02-11 12:53:00,53.4,39.4,29.67,West,277,11.0,-999.0,59,0.00,,,0.01,Wunderground v.1.15,2013-02-11 17:53:00,
2013-02-11 12:59:00,53.5,38.2,29.66,West,263,12.0,-999.0,56,0.00,,,0.01,Wunderground v.1.15,2013-02-11 17:59:00,
2013-02-11 13:04:00,53.7,38.8,29.66,West,267,12.0,-999.0,57,0.00,,,0.01,Wunderground v.1.15,2013-02-11 18:04:00,
2013-02-11 13:10:00,53.5,37.7,29.66,WNW,287,12.0,-999.0,55,0.00,,,0.01,Wunderground v.1.15,2013-02-11 18:10:00,
2013-02-11 13:16:00,52.6,36.9,29.66,WNW,297,12.0,-999.0,55,0.00,,,0.01,Wunderground v.1.15,2013-02-11 18:16:00,
2013-02-11 13:21:00,52.6,37.3,29.66,WSW,252,10.0,-999.0,56,0.00,,,0.01,Wunderground v.1.15,2013-02-11 18:21:00,
2013-02-11 13:26:00,52.7,36.5,29.66,West,281,10.0,-999.0,54,0.00,,,0.01,Wunderground v.1.15,2013-02-11 18:26:00,
2013-02-11 13:32:00,52.6,36.4,29.66,SW,225,10.0,-999.0,54,0.00,,,0.01,Wunderground v.1.15,2013-02-11 18:32:00,
2013-02-11 13:38:00,53.0,35.3,29.66,West,266,12.0,-999.0,51,0.00,,,0.01,Wunderground v.1.15,2013-02-11 18:38:00,
2013-02-11 13:43:00,52.3,36.6,29.67,West,265,12.0,-999.0,55,0.00,,,0.01,Wunderground v.1.15,2013-02-11 18:43:00,
2013-02-11 13:49:00,51.4,37.1,29.66,NW,309,10.0,-999.0,58,0.00,,,0.01,Wunderground v.1.15,2013-02-11 18:49:00,
2013-02-11 13:55:00,51.4,37.1,29.67,WNW,288,11.0,-999.0,58,0.00,,,0.01,Wunderground v.1.15,2013-02-11 18:55:00,
2013-02-11 14:01:00,51.8,37.9,29.67,WNW,297,10.0,-999.0,59,0.00,,,0.01,Wunderground v.1.15,2013-02-11 19:01:00,
2013-02-11 14:07:00,51.3,37.9,29.67,NW,315,8.0,-999.0,60,0.00,,,0.01,Wunderground v.1.15,2013-02-11 19:07:00,
2013-02-11 14:12:00,50.9,37.5,29.68,WNW,292,9.0,-999.0,60,0.00,,,0.01,Wunderground v.1.15,2013-02-11 19:12:00,
2013-02-11 14:18:00,50.5,36.7,29.68,West,274,11.0,-999.0,59,0.00,,,0.01,Wunderground v.1.15,2013-02-11 19:18:00,
2013-02-11 14:23:00,50.2,36.8,29.69,WNW,294,11.0,-999.0,60,0.00,,,0.01,Wunderground v.1.15,2013-02-11 19:23:00,
2013-02-11 14:29:00,49.9,36.1,29.69,West,271,11.0,-999.0,59,0.00,,,0.01,Wunderground v.1.15,2013-02-11 19:29:00,
2013-02-11 14:34:00,49.7,36.4,29.69,WNW,302,11.0,-999.0,60,0.00,,,0.01,Wunderground v.1.15,2013-02-11 19:34:00,
2013-02-11 14:40:00,49.0,35.7,29.69,West,265,11.0,-999.0,60,0.00,,,0.01,Wunderground v.1.15,2013-02-11 19:40:00,
2013-02-11 14:46:00,48.2,35.8,29.70,NNW,338,12.0,-999.0,62,0.00,,,0.01,Wunderground v.1.15,2013-02-11 19:46:00,
2013-02-11 14:52:00,48.3,35.5,29.70,WSW,254,13.0,-999.0,61,0.00,,,0.01,Wunderground v.1.15,2013-02-11 19:52:00,
2013-02-11 14:58:00,48.4,36.0,29.71,West,261,12.0,-999.0,62,0.00,,,0.01,Wunderground v.1.15,2013-02-11 19:58:00,
2013-02-11 15:04:00,48.2,35.8,29.71,West,273,11.0,-999.0,62,0.00,,,0.01,Wunderground v.1.15,2013-02-11 20:04:00,
2013-02-11 15:10:00,48.0,35.6,29.71,West,271,12.0,-999.0,62,0.00,,,0.01,Wunderground v.1.15,2013-02-11 20:10:00,
2013-02-11 15:16:00,47.2,34.8,29.72,NW,311,12.0,-999.0,62,0.00,,,0.01,Wunderground v.1.15,2013-02-11 20:16:00,
2013-02-11 15:21:00,46.8,34.9,29.72,NW,306,11.0,-999.0,63,0.00,,,0.01,Wunderground v.1.15,2013-02-11 20:21:00,
2013-02-11 15:27:00,46.7,34.4,29.72,WNW,284,10.0,-999.0,62,0.00,,,0.01,Wunderground v.1.15,2013-02-11 20:27:00,
2013-02-11 15:33:00,46.3,34.4,29.73,West,275,12.0,-999.0,63,0.00,,,0.01,Wunderground v.1.15,2013-02-11 20:33:00,
2013-02-11 15:39:00,46.0,33.3,29.74,WNW,282,12.0,-999.0,61,0.00,,,0.01,Wunderground v.1.15,2013-02-11 20:39:00,
2013-02-11 15:45:00,45.8,32.3,29.74,WNW,290,12.0,-999.0,59,0.00,,,0.01,Wunderground v.1.15,2013-02-11 20:45:00,
2013-02-11 15:51:00,45.5,32.4,29.75,NW,305,12.0,-999.0,60,0.00,,,0.01,Wunderground v.1.15,2013-02-11 20:51:00,
2013-02-11 15:57:00,44.6,32.0,29.76,WSW,257,13.0,-999.0,61,0.00,,,0.01,Wunderground v.1.15,2013-02-11 20:57:00,
2013-02-11 16:03:00,43.8,30.8,29.76,WNW,297,12.0,-999.0,60,0.00,,,0.01,Wunderground v.1.15,2013-02-11 21:03:00,
2013-02-11 16:09:00,43.4,30.4,29.76,WNW,299,10.0,-999.0,60,0.00,,,0.01,Wunderground v.1.15,2013-02-11 21:09:00,
2013-02-11 16:14:00,42.8,30.3,29.76,NW,304,8.0,-999.0,61,0.00,,,0.01,Wunderground v.1.15,2013-02-11 21:14:00,
2013-02-11 16:20:00,42.3,29.8,29.77,WNW,283,7.0,-999.0,61,0.00,,,0.01,Wunderground v.1.15,2013-02-11 21:20:00,
2013-02-11 16:26:00,41.7,29.2,29.78,West,278,8.0,-999.0,61,0.00,,,0.01,Wunderground v.1.15,2013-02-11 21:26:00,
2013-02-11 16:32:00,41.3,28.9,29.78,WNW,298,10.0,-999.0,61,0.00,,,0.01,Wunderground v.1.15,2013-02-11 21:32:00,
2013-02-11 16:38:00,41.3,28.9,29.78,WNW,291,9.0,-999.0,61,0.00,,,0.01,Wunderground v.1.15,2013-02-11 21:38:00,
2013-02-11 16:44:00,41.1,29.1,29.78,NW,310,7.0,-999.0,62,0.00,,,0.01,Wunderground v.1.15,2013-02-11 21:44:00,
2013-02-11 16:50:00,40.9,28.9,29.78,WNW,289,10.0,-999.0,62,0.00,,,0.01,Wunderground v.1.15,2013-02-11 21:50:00,
2013-02-11 16:56:00,40.8,28.8,29.79,West,280,11.0,-999.0,62,0.00,,,0.01,Wunderground v.1.15,2013-02-11 21:56:00,
2013-02-11 17:02:00,40.9,29.3,29.79,NW,304,8.0,-999.0,63,0.00,,,0.01,Wunderground v.1.15,2013-02-11 22:02:00,
2013-02-11 17:08:00,40.8,29.2,29.79,NW,313,8.0,-999.0,63,0.00,,,0.01,Wunderground v.1.15,2013-02-11 22:08:00,
2013-02-11 17:14:00,40.7,29.1,29.79,West,261,8.0,-999.0,63,0.00,,,0.01,Wunderground v.1.15,2013-02-11 22:14:00,
2013-02-11 17:20:00,40.7,29.1,29.79,WNW,292,8.0,-999.0,63,0.00,,,0.01,Wunderground v.1.15,2013-02-11 22:20:00,
2013-02-11 17:25:00,40.7,28.7,29.79,WNW,288,9.0,-999.0,62,0.00,,,0.01,Wunderground v.1.15,2013-02-11 22:25:00,
2013-02-11 17:31:00,40.7,29.1,29.79,NW,323,7.0,-999.0,63,0.00,,,0.01,Wunderground v.1.15,2013-02-11 22:31:00,
2013-02-11 17:37:00,40.6,29.0,29.80,WNW,292,6.0,-999.0,63,0.00,,,0.01,Wunderground v.1.15,2013-02-11 22:37:00,
2013-02-11 17:43:00,40.6,29.0,29.80,West,263,7.0,-999.0,63,0.00,,,0.01,Wunderground v.1.15,2013-02-11 22:43:00,
2013-02-11 17:49:00,40.5,28.9,29.80,West,270,6.0,-999.0,63,0.00,,,0.01,Wunderground v.1.15,2013-02-11 22:49:00,
2013-02-11 17:55:00,40.4,28.8,29.80,WNW,287,6.0,-999.0,63,0.00,,,0.01,Wunderground v.1.15,2013-02-11 22:55:00,
2013-02-11 18:01:00,40.4,28.8,29.80,WNW,300,8.0,-999.0,63,0.00,,,0.01,Wunderground v.1.15,2013-02-11 23:01:00,
2013-02-11 18:07:00,40.3,28.7,29.80,WNW,290,9.0,-999.0,63,0.00,,,0.01,Wunderground v.1.15,2013-02-11 23:07:00,
2013-02-11 18:13:00,40.1,28.5,29.80,WSW,257,9.0,-999.0,63,0.00,,,0.01,Wunderground v.1.15,2013-02-11 23:13:00,
2013-02-11 18:19:00,39.8,28.6,29.81,West,277,7.0,-999.0,64,0.00,,,0.01,Wunderground v.1.15,2013-02-11 23:19:00,
2013-02-11 18:25:00,39.5,28.7,29.81,West,266,8.0,-999.0,65,0.00,,,0.01,Wunderground v.1.15,2013-02-11 23:25:00,
2013-02-11 18:31:00,39.2,28.4,29.81,WNW,296,8.0,-999.0,65,0.00,,,0.01,Wunderground v.1.15,2013-02-11 23:31:00,
2013-02-11 18:37:00,39.1,28.7,29.82,WNW,296,10.0,-999.0,66,0.00,,,0.01,Wunderground v.1.15,2013-02-11 23:37:00,
2013-02-11 18:43:00,38.8,28.8,29.82,West,275,8.0,-999.0,67,0.00,,,0.01,Wunderground v.1.15,2013-02-11 23:43:00,
2013-02-11 18:49:00,38.6,28.6,29.82,West,275,6.0,-999.0,67,0.00,,,0.01,Wunderground v.1.15,2013-02-11 23:49:00,
2013-02-11 18:54:00,38.4,28.8,29.82,WNW,284,6.0,-999.0,68,0.00,,,0.01,Wunderground v.1.15,2013-02-11 23:54:00,
2013-02-11 19:00:00,38.3,28.7,29.82,WNW,303,7.0,-999.0,68,0.00,,,0.01,Wunderground v.1.15,2013-02-12 00:00:00,
2013-02-11 19:06:00,38.2,28.6,29.82,WNW,301,7.0,-999.0,68,0.00,,,0.01,Wunderground v.1.15,2013-02-12 00:06:00,
2013-02-11 19:12:00,38.1,28.8,29.83,WNW,296,7.0,-999.0,69,0.00,,,0.01,Wunderground v.1.15,2013-02-12 00:12:00,
2013-02-11 19:18:00,38.0,28.7,29.83,West,281,8.0,-999.0,69,0.00,,,0.01,Wunderground v.1.15,2013-02-12 00:18:00,
2013-02-11 19:24:00,37.8,28.5,29.83,WNW,296,9.0,-999.0,69,0.00,,,0.01,Wunderground v.1.15,2013-02-12 00:24:00,
2013-02-11 19:30:00,37.7,28.8,29.83,WNW,285,7.0,-999.0,70,0.00,,,0.01,Wunderground v.1.15,2013-02-12 00:30:00,
2013-02-11 19:36:00,37.8,28.5,29.84,WNW,286,8.0,-999.0,69,0.00,,,0.01,Wunderground v.1.15,2013-02-12 00:36:00,
2013-02-11 19:42:00,37.8,28.2,29.84,NW,323,11.0,-999.0,68,0.00,,,0.01,Wunderground v.1.15,2013-02-12 00:42:00,
2013-02-11 19:48:00,37.5,28.2,29.84,WNW,295,10.0,-999.0,69,0.00,,,0.01,Wunderground v.1.15,2013-02-12 00:48:00,
2013-02-11 19:54:00,37.3,28.1,29.84,WNW,295,8.0,-999.0,69,0.00,,,0.01,Wunderground v.1.15,2013-02-12 00:54:00,
2013-02-11 20:00:00,37.1,28.2,29.85,NW,309,8.0,-999.0,70,0.00,,,0.01,Wunderground v.1.15,2013-02-12 01:00:00,
2013-02-11 20:05:00,36.9,28.4,29.85,WNW,300,6.0,-999.0,71,0.00,,,0.01,Wunderground v.1.15,2013-02-12 01:05:00,
2013-02-11 20:11:00,36.7,28.2,29.85,WNW,282,5.0,-999.0,71,0.00,,,0.01,Wunderground v.1.15,2013-02-12 01:11:00,
2013-02-11 20:17:00,36.8,27.9,29.85,WNW,284,8.0,-999.0,70,0.00,,,0.01,Wunderground v.1.15,2013-02-12 01:17:00,
2013-02-11 20:23:00,36.6,27.7,29.85,NW,304,9.0,-999.0,70,0.00,,,0.01,Wunderground v.1.15,2013-02-12 01:23:00,
2013-02-11 20:29:00,36.5,27.6,29.85,WNW,284,8.0,-999.0,70,0.00,,,0.01,Wunderground v.1.15,2013-02-12 01:29:00,
2013-02-11 20:35:00,36.3,27.4,29.85,West,266,8.0,-999.0,70,0.00,,,0.01,Wunderground v.1.15,2013-02-12 01:35:00,
2013-02-11 20:41:00,36.3,27.1,29.86,WSW,252,9.0,-999.0,69,0.00,,,0.01,Wunderground v.1.15,2013-02-12 01:41:00,
2013-02-11 20:47:00,36.2,27.4,29.87,WSW,248,8.0,-999.0,70,0.00,,,0.01,Wunderground v.1.15,2013-02-12 01:47:00,
2013-02-11 20:53:00,36.3,27.4,29.87,WNW,296,7.0,-999.0,70,0.00,,,0.01,Wunderground v.1.15,2013-02-12 01:53:00,
2013-02-11 20:59:00,36.3,27.1,29.87,WNW,292,8.0,-999.0,69,0.00,,,0.01,Wunderground v.1.15,2013-02-12 01:59:00,
2013-02-11 21:04:00,36.4,26.8,29.87,NW,306,9.0,-999.0,68,0.00,,,0.01,Wunderground v.1.15,2013-02-12 02:04:00,
2013-02-11 21:10:00,36.5,26.9,29.87,NW,325,8.0,-999.0,68,0.00,,,0.01,Wunderground v.1.15,2013-02-12 02:10:00,
2013-02-11 21:16:00,36.6,26.7,29.87,WNW,284,10.0,-999.0,67,0.00,,,0.01,Wunderground v.1.15,2013-02-12 02:16:00,
2013-02-11 21:22:00,36.8,26.5,29.87,West,263,11.0,-999.0,66,0.00,,,0.01,Wunderground v.1.15,2013-02-12 02:22:00,
2013-02-11 21:28:00,36.8,26.5,29.88,WNW,298,9.0,-999.0,66,0.00,,,0.01,Wunderground v.1.15,2013-02-12 02:28:00,
2013-02-11 21:34:00,36.8,26.5,29.87,WNW,302,8.0,-999.0,66,0.00,,,0.01,Wunderground v.1.15,2013-02-12 02:34:00,
2013-02-11 21:40:00,36.8,26.5,29.87,WNW,302,7.0,-999.0,66,0.00,,,0.01,Wunderground v.1.15,2013-02-12 02:40:00,
2013-02-11 21:46:00,36.8,26.5,29.87,NW,308,7.0,-999.0,66,0.00,,,0.01,Wunderground v.1.15,2013-02-12 02:46:00,
2013-02-11 21:52:00,36.8,26.5,29.87,NW,324,7.0,-999.0,66,0.00,,,0.01,Wunderground v.1.15,2013-02-12 02:52:00,
2013-02-11 21:58:00,36.8,26.5,29.87,West,279,8.0,-999.0,66,0.00,,,0.01,Wunderground v.1.15,2013-02-12 02:58:00,
2013-02-11 22:04:00,36.9,26.6,29.87,WNW,295,9.0,-999.0,66,0.00,,,0.01,Wunderground v.1.15,2013-02-12 03:04:00,
2013-02-11 22:09:00,36.9,26.6,29.87,WNW,295,8.0,-999.0,66,0.00,,,0.01,Wunderground v.1.15,2013-02-12 03:09:00,
2013-02-11 22:15:00,36.9,26.6,29.87,WNW,297,8.0,-999.0,66,0.00,,,0.01,Wunderground v.1.15,2013-02-12 03:15:00,
2013-02-11 22:21:00,36.9,27.0,29.87,West,271,7.0,-999.0,67,0.00,,,0.01,Wunderground v.1.15,2013-02-12 03:21:00,
2013-02-11 22:27:00,37.0,26.7,29.88,West,275,9.0,-999.0,66,0.00,,,0.01,Wunderground v.1.15,2013-02-12 03:27:00,
2013-02-11 22:33:00,37.0,26.3,29.88,WSW,251,10.0,-999.0,65,0.00,,,0.01,Wunderground v.1.15,2013-02-12 03:33:00,
2013-02-11 22:39:00,37.1,26.0,29.87,WNW,290,10.0,-999.0,64,0.00,,,0.01,Wunderground v.1.15,2013-02-12 03:39:00,
2013-02-11 22:45:00,37.1,26.4,29.87,West,278,10.0,-999.0,65,0.00,,,0.01,Wunderground v.1.15,2013-02-12 03:45:00,
2013-02-11 22:50:00,37.0,26.3,29.88,West,271,9.0,-999.0,65,0.00,,,0.01,Wunderground v.1.15,2013-02-12 03:50:00,
2013-02-11 22:56:00,37.1,26.4,29.88,SW,227,9.0,-999.0,65,0.00,,,0.01,Wunderground v.1.15,2013-02-12 03:56:00,
2013-02-11 23:02:00,37.1,26.8,29.88,West,265,11.0,-999.0,66,0.00,,,0.01,Wunderground v.1.15,2013-02-12 04:02:00,
2013-02-11 23:08:00,37.0,26.7,29.88,WNW,298,9.0,-999.0,66,0.00,,,0.01,Wunderground v.1.15,2013-02-12 04:08:00,
2013-02-11 23:14:00,37.0,26.7,29.88,NW,306,8.0,-999.0,66,0.00,,,0.01,Wunderground v.1.15,2013-02-12 04:14:00,
2013-02-11 23:20:00,37.0,26.7,29.89,WNW,286,7.0,-999.0,66,0.00,,,0.01,Wunderground v.1.15,2013-02-12 04:20:00,
2013-02-11 23:26:00,37.0,26.7,29.88,NW,306,9.0,-999.0,66,0.00,,,0.01,Wunderground v.1.15,2013-02-12 04:26:00,
2013-02-11 23:31:00,37.0,26.7,29.88,WSW,257,10.0,-999.0,66,0.00,,,0.01,Wunderground v.1.15,2013-02-12 04:31:00,
2013-02-11 23:37:00,36.9,26.6,29.89,NW,306,11.0,-999.0,66,0.00,,,0.01,Wunderground v.1.15,2013-02-12 04:37:00,
2013-02-11 23:43:00,36.9,26.6,29.89,NW,305,9.0,-999.0,66,0.00,,,0.01,Wunderground v.1.15,2013-02-12 04:43:00,
2013-02-11 23:49:00,36.7,26.4,29.89,West,281,8.0,-999.0,66,0.00,,,0.01,Wunderground v.1.15,2013-02-12 04:49:00,
2013-02-11 23:54:00,36.7,26.4,29.89,WNW,288,8.0,-999.0,66,0.00,,,0.01,Wunderground v.1.15,2013-02-12 04:54:00,